• MPC Preparation (Info)

  • MPEC 2012-F81 : 2012 FS35

    The following Minor Planet Electronic Circular may be linked-to from your own Web pages, but must not otherwise be redistributed electronically.

    A form allowing access to any MPEC is at the bottom of this page.


    Read MPEC 2012-F80 Read MPEC 2012-F82


    M.P.E.C. 2012-F81                                Issued 2012 Mar. 25, 21:37 UT
    
         The Minor Planet Electronic Circulars contain information on unusual
             minor planets and routine data on comets.  They are published
       on behalf of Commission 20 of the International Astronomical Union by the
              Minor Planet Center, Smithsonian Astrophysical Observatory,
                              Cambridge, MA 02138, U.S.A.
    
                 Prepared using the Tamkin Foundation Computer Network
    
                                  MPC@CFA.HARVARD.EDU
                URL https://www.minorplanetcenter.net/    ISSN 1523-6714
    
                                       2012 FS35
    
    Observations:
         K12F35S* C2012 03 25.18756 10 58 40.65 +16 21 11.3          18.9 VrEF081703
         K12F35S  C2012 03 25.19259 10 58 34.03 +16 19 27.6          19.1 VrEF081703
         K12F35S  C2012 03 25.19764 10 58 27.04 +16 17 42.1          18.6 VrEF081703
         K12F35S  C2012 03 25.20278 10 58 20.06 +16 15 52.1          18.9 VrEF081703
         K12F35S  C2012 03 25.25480 10 57 03.60 +15 56 04.1          18.5 VrEF081703
         K12F35S  C2012 03 25.25595 10 57 01.83 +15 55 36.0          18.4 VrEF081703
         K12F35S  C2012 03 25.25709 10 57 00.14 +15 55 07.9          18.6 VrEF081703
         K12F35S  C2012 03 25.25824 10 56 58.27 +15 54 40.2          18.9 VrEF081703
         K12F35S  C2012 03 25.33212 10 55 02.42 +15 21 47.9          18.4 VrEF081703
         K12F35S  C2012 03 25.33258 10 55 01.70 +15 21 34.9          18.6 VrEF081703
         K12F35S  C2012 03 25.33304 10 55 00.98 +15 21 20.4          18.5 VrEF081703
         K12F35S KC2012 03 25.80710 10 52 15.42 +09 46 52.1          17.4 RrEF081A17
         K12F35S KC2012 03 25.80831 10 52 13.03 +09 45 40.9          17.4 RrEF081A17
         K12F35S KC2012 03 25.81354 10 52 02.77 +09 40 35.0          17.7 RrEF081A17
         K12F35S KC2012 03 25.82679 10 51 35.68 +09 27 21.8          17.4 RrEF081A17
         K12F35S KC2012 03 25.83152610 51 48.20 +09 19 54.6          17.5 RuEF081J95
         K12F35S KC2012 03 25.83268910 51 45.95 +09 18 43.9          17.8 RuEF081J95
         K12F35S KC2012 03 25.83387510 51 43.60 +09 17 30.2          18.1 RuEF081J95
         K12F35S KC2012 03 25.83984 10 51 44.87 +09 18 14.9          17.8 VvEF081I93
         K12F35S KC2012 03 25.84679 10 51 29.59 +09 11 00.6          17.7 VvEF081I93
         K12F35S KC2012 03 25.84853 10 51 25.69 +09 09 10.9          17.8 VvEF081I93
         K12F35S  C2012 03 25.85079 10 50 25.64 +09 03 17.6                oEF081246
         K12F35S  C2012 03 25.85113 10 50 24.94 +09 02 58.7                oEF081246
         K12F35S  C2012 03 25.85166 10 50 23.52 +09 02 18.1                oEF081246
         K12F35S  C2012 03 25.85260 10 50 21.19 +09 01 17.3                oEF081246
         K12F35S KC2012 03 25.85323 10 51 15.03 +09 04 11.2          17.7 VvEF081I93
         K12F35S KC2012 03 25.86032 10 50 25.15 +08 55 56.7          17.7 RcEF081A24
         K12F35S KC2012 03 25.86170 10 50 21.63 +08 54 24.4          17.5 RcEF081A24
         K12F35S KC2012 03 25.87623 10 49 44.77 +08 38 07.3          17.4 RcEF081A24
         K12F35S KC2012 03 25.87760 10 49 41.14 +08 36 32.8          17.3 RcEF081A24
    
    Observer details:
    246 Klet Observatory-KLENOT.  Observers M. Tichy, J. Ticha, M. Kocer,
        M. Honkova.  Measurer M. Tichy.  1.06-m KLENOT Telescope + CCD.
    703 Catalina Sky Survey.  Observer R. E. Hill.  Measurers J. D. Ahern,
        E. C. Beshore, A. Boattini, G. J. Garradd, A. R. Gibbs, P. Tricarico,
        A. D. Grauer, R. E. Hill, R. A. Kowalski, S. M. Larson, R. H. McNaught.
        0.68-m Schmidt + CCD.
    A17 Guidestar Observatory, Weinheim.  Observers M. Emmerich, S. Melchert.
        0.36-m f/6 Schmidt-Cassegrain + CCD.
    A24 New Millennium Observatory, Mozzate.  Observer E. Cozzi.  0.36-m f/11
        Schmidt-Cassegrain + CCD.
    I93 St Pardon de Conques.  Observer F. Losse.  0.40-m f/5.0 reflector + CCD.
    J95 Great Shefford.  Observer P. Birtwhistle.  0.40-m f/6.0 Schmidt-Cassegrain
        + CCD.
    
    Orbital elements:
    2012 FS35                                                Earth MOID = 0.0006 AU
    Epoch 2012 Mar. 14.0 TT = JDT 2456000.5                 MPC
    M 321.06620              (2000.0)            P               Q
    n   0.82491644     Peri.  217.62671     -0.72821307     +0.68534177
    a   1.1259767      Node     5.63971     -0.61977954     -0.65634023
    e   0.1343859      Incl.    2.05244     -0.29253896     -0.31547451
    P   1.19           H   30.1           G   0.15           U   5
    Residuals in seconds of arc
    120325 703  0.2+  0.7-    120325 703  0.0   0.9-    120325 I93  0.0   0.2+
    120325 703  1.5+  0.1+    120325 A17  0.6+  0.5+    120325 246 (2.0+  3.1+)
    120325 703  0.6-  0.7+    120325 A17  0.1-  0.4-    120325 246 (3.6+  6.2+)
    120325 703  0.7+  0.2+    120325 A17  0.1+  0.0     120325 246  1.3+  0.0
    120325 703  0.4-  0.1+    120325 A17  0.3+  0.3+    120325 246  0.1+  0.3+
    120325 703  0.4-  0.1-    120325 J95  0.0   0.4-    120325 I93  0.2+  0.2-
    120325 703  0.5+  0.4-    120325 J95  0.4+  0.2+    120325 A24  1.9+  1.1+
    120325 703  0.9-  0.1+    120325 J95  0.1+  0.5-    120325 A24  0.3+  0.3-
    120325 703  0.1+  0.0     120325 I93  0.0   0.1+    120325 A24  0.2+  0.5-
    120325 703  0.1+  0.3+    120325 I93  0.0   0.0     120325 A24  0.8-  1.0-
    
    Ephemeris:
    2012 FS35                a,e,i = 1.13, 0.13, 2                   q = 0.9747
    Date    TT    R. A. (2000) Decl.     Delta      r     Elong.  Phase     V
    2012 02 24    11 11 53.5 +23 25 15   0.06674 1.0533   162.5    16.4    25.2
    ...
    2012 03 10    11 11 07.2 +24 42 19   0.03362 1.0246   159.2    20.1    23.8
    ...
    2012 03 18    11 09 07.8 +24 24 29   0.01752 1.0112   154.4    25.2    22.5
    ...
    2012 03 24    11 03 01.3 +20 42 13   0.0056871.0021   152.0    27.9    20.1
    2012 03 25    10 58 52.4 +17 35 09   0.0036911.0006   152.7    27.2    19.2
    2012 03 26    10 45 50.0 +06 50 37   0.0016600.9991   154.7    25.2    17.4
    ...
    2012 04 01    22 25 45.1 +10 40 46   0.01074 0.9904    34.4   145.3    27.9
    ...
    2012 04 09    22 25 48.6 +12 24 49   0.02650 0.9817    41.0   137.9    28.8
    ...
    2012 04 24    22 36 31.9 +13 04 10   0.05675 0.9712    51.2   126.2    29.2
    
    A. U. Tomatic                (C) Copyright 2012 MPC           M.P.E.C. 2012-F81
    

    Read MPEC 2012-F80 Read MPEC 2012-F82


    MPEC number:

    Enter an MPEC number in one of the following forms:

    • 1997-B01 (the full form)
    • J97B01 (the packed version of the full form)
    • B01 (the abbreviated form)